| time (UTC) | temp F | wind direction | speed knots | gust knots | rain 1hr in | rain 24hr in | rain mn in | humidity % | barometer mb |
| 20260903035714 | 81 | 143 | 3.5 | 0.0 | 0.00 | 0.00 | 0.00 | 78 | 1012.0 |
| 20260903035010 | 81 | 48 | 11.3 | 0.0 | 0.00 | 0.00 | 0.00 | 78 | 1012.0 |
| 20260903034720 | 81 | 127 | 7.8 | 0.0 | 0.00 | 0.00 | 0.00 | 77 | 1011.6 |
| 20260903034017 | 81 | 49 | 15.6 | 0.0 | 0.00 | 0.00 | 0.00 | 77 | 1011.6 |
| 20260903033519 | 81 | 91 | 11.3 | 0.0 | 0.00 | 0.00 | 0.00 | 76 | 1011.6 |
| 20260903033023 | 81 | 71 | 3.5 | 0.0 | 0.00 | 0.00 | 0.00 | 76 | 1011.6 |
| 20260903032526 | 81 | 66 | 7.8 | 0.0 | 0.00 | 0.00 | 0.00 | 76 | 1011.6 |
| 20260903032029 | 81 | 104 | 3.5 | 0.0 | 0.00 | 0.00 | 0.00 | 75 | 1011.6 |
| 20260903031532 | 81 | 115 | 7.8 | 0.0 | 0.00 | 0.00 | 0.00 | 75 | 1011.6 |
| 20260903031007 | 82 | 111 | 11.3 | 0.0 | 0.00 | 0.00 | 0.00 | 75 | 1011.6 |
| 20260903030718 | 82 | 72 | 3.5 | 0.0 | 0.00 | 0.00 | 0.00 | 75 | 1011.3 |
| 20260903030013 | 82 | 201 | 7.8 | 0.0 | 0.00 | 0.00 | 0.00 | 74 | 1011.3 |
| 20260903025724 | 82 | 31 | 3.5 | 0.0 | 0.00 | 0.00 | 0.00 | 74 | 1011.3 |
| 20260903025019 | 82 | 180 | 11.3 | 0.0 | 0.00 | 0.00 | 0.00 | 73 | 1011.0 |
| 20260903024522 | 82 | 80 | 15.6 | 0.0 | 0.00 | 0.00 | 0.00 | 73 | 1011.3 |
| 20260903024233 | 82 | 113 | 15.6 | 0.0 | 0.00 | 0.00 | 0.00 | 72 | 1010.6 |
| 20260903023528 | 82 | 129 | 11.3 | 0.0 | 0.00 | 0.00 | 0.00 | 72 | 1011.0 |
| 20260903023031 | 82 | 88 | 15.6 | 0.0 | 0.00 | 0.00 | 0.00 | 72 | 1010.6 |
| 20260903022507 | 83 | 347 | 11.3 | 0.0 | 0.00 | 0.00 | 0.00 | 72 | 1010.6 |
| 20260903022010 | 83 | 76 | 15.6 | 0.0 | 0.00 | 0.00 | 0.00 | 72 | 1010.6 |
| 20260903021513 | 83 | 86 | 7.8 | 0.0 | 0.00 | 0.00 | 0.00 | 71 | 1010.6 |
| 20260903021016 | 83 | 347 | 7.8 | 0.0 | 0.00 | 0.00 | 0.00 | 70 | 1010.3 |
| 20260903020520 | 83 | 13 | 11.3 | 0.0 | 0.00 | 0.00 | 0.00 | 70 | 1009.9 |
| 20260903020022 | 83 | 112 | 11.3 | 0.0 | 0.00 | 0.00 | 0.00 | 69 | 1009.9 |
| 20260903015525 | 83 | 75 | 11.3 | 0.0 | 0.00 | 0.00 | 0.00 | 68 | 1010.3 |
| 20260903015029 | 83 | 94 | 7.8 | 0.0 | 0.00 | 0.00 | 0.00 | 67 | 1009.9 |
| 20260903014531 | 83 | 86 | 15.6 | 0.0 | 0.00 | 0.00 | 0.00 | 66 | 1009.6 |
| 20260903014007 | 84 | 76 | 3.5 | 0.0 | 0.00 | 0.00 | 0.00 | 65 | 1009.6 |
| 20260903013510 | 84 | 80 | 20.0 | 0.0 | 0.00 | 0.00 | 0.00 | 64 | 1009.6 |
| 20260903013013 | 85 | 70 | 11.3 | 0.0 | 0.00 | 0.00 | 0.00 | 62 | 1009.6 |
| 20260903012516 | 85 | 64 | 3.5 | 0.0 | 0.00 | 0.00 | 0.00 | 61 | 1009.3 |
| 20260903012019 | 85 | 47 | 11.3 | 0.0 | 0.00 | 0.00 | 0.00 | 61 | 1009.6 |
| 20260903011523 | 85 | 145 | 11.3 | 0.0 | 0.00 | 0.00 | 0.00 | 60 | 1009.3 |
| 20260903011025 | 85 | 126 | 7.8 | 0.0 | 0.00 | 0.00 | 0.00 | 59 | 1009.6 |
| 20260903010528 | 86 | 49 | 11.3 | 0.0 | 0.00 | 0.00 | 0.00 | 58 | 1008.9 |
| 20260903010032 | 86 | 122 | 11.3 | 0.0 | 0.00 | 0.00 | 0.00 | 57 | 1008.9 |
| 20260903005507 | 86 | 235 | 11.3 | 0.0 | 0.00 | 0.00 | 0.00 | 56 | 1009.3 |
| 20260903005011 | 86 | 358 | 11.3 | 0.0 | 0.00 | 0.00 | 0.00 | 55 | 1008.9 |
| 20260903004513 | 86 | 170 | 11.3 | 0.0 | 0.00 | 0.00 | 0.00 | 53 | 1008.9 |
| 20260903004016 | 87 | 98 | 15.6 | 0.0 | 0.00 | 0.00 | 0.00 | 51 | 1008.6 |
| 20260903003519 | 87 | 132 | 20.0 | 0.0 | 0.00 | 0.00 | 0.00 | 49 | 1008.9 |
| 20260903003022 | 87 | 4 | 20.0 | 0.0 | 0.00 | 0.00 | 0.00 | 49 | 1008.9 |
| 20260903002525 | 88 | 85 | 11.3 | 0.0 | 0.00 | 0.00 | 0.00 | 49 | 1008.9 |
| 20260903002028 | 88 | 98 | 20.0 | 0.0 | 0.00 | 0.00 | 0.00 | 47 | 1008.9 |
| 20260903001531 | 88 | 117 | 11.3 | 0.0 | 0.00 | 0.00 | 0.00 | 45 | 1008.9 |
| 20260903001007 | 88 | 118 | 3.5 | 0.0 | 0.00 | 0.00 | 0.00 | 44 | 1008.6 |
| 20260903000510 | 89 | 84 | 3.5 | 0.0 | 0.00 | 0.00 | 0.00 | 44 | 1008.6 |
| 20260903000013 | 89 | 49 | 0.0 | 0.0 | 0.00 | 0.00 | 0.00 | 45 | 1008.9 |
| 20260902235516 | 89 | 108 | 3.5 | 0.0 | 0.00 | 0.00 | 0.00 | 46 | 1008.6 |
| 20260902235019 | 89 | 115 | 23.5 | 0.0 | 0.00 | 0.00 | 0.00 | 46 | 1008.6 |
| 20260902234522 | 89 | 150 | 3.5 | 0.0 | 0.00 | 0.00 | 0.00 | 46 | 1008.6 |
| 20260902234025 | 89 | 135 | 15.6 | 0.0 | 0.00 | 0.00 | 0.00 | 45 | 1008.6 |
| 20260902233528 | 89 | 49 | 15.6 | 0.0 | 0.00 | 0.00 | 0.00 | 45 | 1008.6 |
| 20260902233031 | 89 | 142 | 11.3 | 0.0 | 0.00 | 0.00 | 0.00 | 45 | 1008.6 |
| 20260902232507 | 90 | 102 | 15.6 | 0.0 | 0.00 | 0.00 | 0.00 | 44 | 1008.6 |
| 20260902232010 | 91 | 29 | 7.8 | 0.0 | 0.00 | 0.00 | 0.00 | 44 | 1008.6 |
| 20260902231720 | 91 | 96 | 23.5 | 0.0 | 0.00 | 0.00 | 0.00 | 43 | 1008.6 |
| 20260902231016 | 91 | 62 | 20.0 | 0.0 | 0.00 | 0.00 | 0.00 | 44 | 1008.6 |
| 20260902230519 | 92 | 64 | 7.8 | 0.0 | 0.00 | 0.00 | 0.00 | 42 | 1008.6 |
| 20260902230022 | 91 | 185 | 11.3 | 0.0 | 0.00 | 0.00 | 0.00 | 42 | 1008.6 |
| 20260902225733 | 92 | 86 | 11.3 | 0.0 | 0.00 | 0.00 | 0.00 | 41 | 1008.6 |
| 20260902225236 | 92 | 79 | 20.0 | 0.0 | 0.00 | 0.00 | 0.00 | 39 | 1008.6 |
| 20260902224531 | 92 | 58 | 15.6 | 0.0 | 0.00 | 0.00 | 0.00 | 36 | 1008.6 |
| 20260902224007 | 92 | 84 | 7.8 | 0.0 | 0.00 | 0.00 | 0.00 | 34 | 1008.6 |
| 20260902223510 | 93 | 80 | 11.3 | 0.0 | 0.00 | 0.00 | 0.00 | 34 | 1008.2 |
| 20260902223013 | 93 | 206 | 7.8 | 0.0 | 0.00 | 0.00 | 0.00 | 33 | 1008.6 |
| 20260902222516 | 93 | 73 | 20.0 | 0.0 | 0.00 | 0.00 | 0.00 | 33 | 1008.6 |
| 20260902222019 | 93 | 57 | 7.8 | 0.0 | 0.00 | 0.00 | 0.00 | 33 | 1008.6 |
| 20260902221522 | 94 | 67 | 7.8 | 0.0 | 0.00 | 0.00 | 0.00 | 33 | 1008.6 |
| 20260902221025 | 93 | 108 | 11.3 | 0.0 | 0.00 | 0.00 | 0.00 | 33 | 1008.6 |
| 20260902220528 | 94 | 153 | 11.3 | 0.0 | 0.00 | 0.00 | 0.00 | 33 | 1008.6 |
| 20260902220031 | 93 | 104 | 11.3 | 0.0 | 0.00 | 0.00 | 0.00 | 34 | 1008.2 |
| 20260902215507 | 94 | 78 | 11.3 | 0.0 | 0.00 | 0.00 | 0.00 | 34 | 1008.6 |
| 20260902215010 | 94 | 55 | 7.8 | 0.0 | 0.00 | 0.00 | 0.00 | 34 | 1008.6 |
| 20260902214720 | 94 | 92 | 20.0 | 0.0 | 0.00 | 0.00 | 0.00 | 33 | 1008.6 |
| 20260902214016 | 94 | 167 | 11.3 | 0.0 | 0.00 | 0.00 | 0.00 | 33 | 1008.2 |
| 20260902213726 | 94 | 84 | 11.3 | 0.0 | 0.00 | 0.00 | 0.00 | 32 | 1008.6 |
| 20260902213022 | 94 | 111 | 7.8 | 0.0 | 0.00 | 0.00 | 0.00 | 32 | 1008.6 |
| 20260902212525 | 94 | 18 | 15.6 | 0.0 | 0.00 | 0.00 | 0.00 | 33 | 1008.6 |
| 20260902212028 | 95 | 154 | 7.8 | 0.0 | 0.00 | 0.00 | 0.00 | 34 | 1008.6 |
| 20260902211531 | 95 | 117 | 15.6 | 0.0 | 0.00 | 0.00 | 0.00 | 34 | 1008.9 |
| 20260902211007 | 94 | 55 | 20.0 | 0.0 | 0.00 | 0.00 | 0.00 | 35 | 1008.9 |
| 20260902210510 | 95 | 146 | 7.8 | 0.0 | 0.00 | 0.00 | 0.00 | 35 | 1008.9 |
| 20260902210013 | 95 | 1 | 11.3 | 0.0 | 0.00 | 0.00 | 0.00 | 35 | 1008.9 |
| 20260902205724 | 95 | 191 | 15.6 | 0.0 | 0.00 | 0.00 | 0.00 | 34 | 1008.9 |
| 20260902205019 | 94 | 108 | 3.5 | 0.0 | 0.00 | 0.00 | 0.00 | 35 | 1008.9 |
| 20260902204522 | 95 | 61 | 11.3 | 0.0 | 0.00 | 0.00 | 0.00 | 35 | 1009.3 |
| 20260902204025 | 95 | 90 | 3.5 | 0.0 | 0.00 | 0.00 | 0.00 | 37 | 1009.3 |
| 20260902203510 | 94 | 139 | 7.8 | 0.0 | 0.00 | 0.00 | 0.00 | 37 | 1009.3 |
| 20260902203031 | 95 | 354 | 15.6 | 0.0 | 0.00 | 0.00 | 0.00 | 35 | 1009.3 |
| 20260902202507 | 95 | 323 | 7.8 | 0.0 | 0.00 | 0.00 | 0.00 | 36 | 1009.3 |
| 20260902202218 | 95 | 154 | 11.3 | 0.0 | 0.00 | 0.00 | 0.00 | 37 | 1009.6 |
| 20260902201513 | 95 | 171 | 11.3 | 0.0 | 0.00 | 0.00 | 0.00 | 36 | 1009.6 |
| 20260902201016 | 95 | 142 | 7.8 | 0.0 | 0.00 | 0.00 | 0.00 | 37 | 1009.6 |
| 20260902200727 | 95 | 136 | 3.5 | 0.0 | 0.00 | 0.00 | 0.00 | 36 | 1009.6 |
| 20260902200022 | 95 | 177 | 7.8 | 0.0 | 0.00 | 0.00 | 0.00 | 37 | 1009.9 |
| 20260902195525 | 95 | 230 | 3.5 | 0.0 | 0.00 | 0.00 | 0.00 | 38 | 1009.9 |
| 20260902195236 | 95 | 154 | 11.3 | 0.0 | 0.00 | 0.00 | 0.00 | 36 | 1009.9 |
| 20260902194531 | 94 | 41 | 15.6 | 0.0 | 0.00 | 0.00 | 0.00 | 36 | 1009.9 |
| 20260902194214 | 94 | 23 | 11.3 | 0.0 | 0.00 | 0.00 | 0.00 | 38 | 1010.3 |
| 20260902193510 | 93 | 163 | 15.6 | 0.0 | 0.00 | 0.00 | 0.00 | 38 | 1010.3 |
| 20260902193013 | 94 | 110 | 7.8 | 0.0 | 0.00 | 0.00 | 0.00 | 37 | 1010.3 |
| 20260902192723 | 95 | 137 | 3.5 | 0.0 | 0.00 | 0.00 | 0.00 | 36 | 1010.3 |
| 20260902192019 | 95 | 160 | 7.8 | 0.0 | 0.00 | 0.00 | 0.00 | 37 | 1010.3 |
| 20260902191522 | 94 | 111 | 3.5 | 0.0 | 0.00 | 0.00 | 0.00 | 37 | 1010.3 |
| 20260902191025 | 94 | 53 | 11.3 | 0.0 | 0.00 | 0.00 | 0.00 | 38 | 1010.6 |
| 20260902190735 | 94 | 201 | 3.5 | 0.0 | 0.00 | 0.00 | 0.00 | 38 | 1011.0 |
| 20260902190031 | 93 | 139 | 3.5 | 0.0 | 0.00 | 0.00 | 0.00 | 40 | 1011.0 |
| 20260902185507 | 92 | 92 | 15.6 | 0.0 | 0.00 | 0.00 | 0.00 | 39 | 1011.0 |
| 20260902185010 | 94 | 126 | 3.5 | 0.0 | 0.00 | 0.00 | 0.00 | 40 | 1011.0 |
| 20260902184513 | 92 | 100 | 7.8 | 0.0 | 0.00 | 0.00 | 0.00 | 42 | 1011.3 |
| 20260902184016 | 92 | 68 | 7.8 | 0.0 | 0.00 | 0.00 | 0.00 | 41 | 1011.3 |
| 20260902183519 | 93 | 146 | 20.0 | 0.0 | 0.00 | 0.00 | 0.00 | 41 | 1011.3 |
| 20260902183022 | 92 | 150 | 7.8 | 0.0 | 0.00 | 0.00 | 0.00 | 43 | 1011.3 |
| 20260902182733 | 92 | 88 | 11.3 | 0.0 | 0.00 | 0.00 | 0.00 | 40 | 1011.3 |
| 20260902182028 | 92 | 20 | 7.8 | 0.0 | 0.00 | 0.00 | 0.00 | 42 | 1011.3 |
| 20260902181531 | 92 | 37 | 7.8 | 0.0 | 0.00 | 0.00 | 0.00 | 43 | 1011.6 |
| 20260902181215 | 92 | 158 | 3.5 | 0.0 | 0.00 | 0.00 | 0.00 | 42 | 1011.6 |
| 20260902180507 | 92 | 131 | 15.6 | 0.0 | 0.00 | 0.00 | 0.00 | 41 | 1011.6 |
| 20260902180013 | 92 | 150 | 3.5 | 0.0 | 0.00 | 0.00 | 0.00 | 44 | 1012.0 |
| 20260902175505 | 91 | 156 | 11.3 | 0.0 | 0.00 | 0.00 | 0.00 | 42 | 1012.0 |
| 20260902175005 | 92 | 33 | 11.3 | 0.0 | 0.00 | 0.00 | 0.00 | 43 | 1012.0 |
| 20260902174505 | 92 | 99 | 11.3 | 0.0 | 0.00 | 0.00 | 0.00 | 44 | 1012.3 |
| 20260902174005 | 91 | 154 | 20.0 | 0.0 | 0.00 | 0.00 | 0.00 | 45 | 1012.3 |
| 20260902173712 | 91 | 53 | 7.8 | 0.0 | 0.00 | 0.00 | 0.00 | 44 | 1012.3 |
| 20260902173005 | 90 | 79 | 11.3 | 0.0 | 0.00 | 0.00 | 0.00 | 45 | 1012.3 |
| 20260902172505 | 91 | 164 | 23.5 | 0.0 | 0.00 | 0.00 | 0.00 | 45 | 1012.3 |
| 20260902172005 | 90 | 163 | 3.5 | 0.0 | 0.00 | 0.00 | 0.00 | 47 | 1012.3 |
| 20260902171505 | 90 | 94 | 15.6 | 0.0 | 0.00 | 0.00 | 0.00 | 47 | 1012.3 |
| 20260902171005 | 90 | 238 | 3.5 | 0.0 | 0.00 | 0.00 | 0.00 | 48 | 1012.3 |
| 20260902170712 | 89 | 105 | 20.0 | 0.0 | 0.00 | 0.00 | 0.00 | 49 | 1012.7 |
| 20260902170005 | 89 | 157 | 20.0 | 0.0 | 0.00 | 0.00 | 0.00 | 49 | 1012.7 |
| 20260902165712 | 89 | 154 | 7.8 | 0.0 | 0.00 | 0.00 | 0.00 | 51 | 1012.7 |
| 20260902165005 | 90 | 172 | 3.5 | 0.0 | 0.00 | 0.00 | 0.00 | 49 | 1012.7 |
| 20260902164505 | 89 | 105 | 11.3 | 0.0 | 0.00 | 0.00 | 0.00 | 52 | 1013.0 |
| 20260902164005 | 89 | 159 | 15.6 | 0.0 | 0.00 | 0.00 | 0.00 | 52 | 1013.0 |
| 20260902163504 | 89 | 212 | 11.3 | 0.0 | 0.00 | 0.00 | 0.00 | 52 | 1013.0 |
| 20260902163005 | 88 | 139 | 11.3 | 0.0 | 0.00 | 0.00 | 0.00 | 54 | 1013.0 |
| 20260902162712 | 88 | 111 | 7.8 | 0.0 | 0.00 | 0.00 | 0.00 | 56 | 1013.3 |
| 20260902162005 | 88 | 122 | 11.3 | 0.0 | 0.00 | 0.00 | 0.00 | 55 | 1013.0 |
| 20260902161505 | 88 | 154 | 11.3 | 0.0 | 0.00 | 0.00 | 0.00 | 54 | 1013.0 |
| 20260902161005 | 88 | 215 | 11.3 | 0.0 | 0.00 | 0.00 | 0.00 | 55 | 1013.3 |
| 20260902160505 | 86 | 161 | 11.3 | 0.0 | 0.00 | 0.00 | 0.00 | 58 | 1013.3 |
| 20260902160007 | 86 | 171 | 20.0 | 0.0 | 0.00 | 0.00 | 0.00 | 58 | 1013.0 |
| 20260902155505 | 86 | 72 | 27.8 | 0.0 | 0.00 | 0.00 | 0.00 | 57 | 1013.3 |
| 20260902155005 | 87 | 119 | 15.6 | 0.0 | 0.00 | 0.00 | 0.00 | 58 | 1013.3 |
| 20260902154505 | 86 | 139 | 3.5 | 0.0 | 0.00 | 0.00 | 0.00 | 60 | 1013.0 |
| 20260902154004 | 86 | 158 | 11.3 | 0.0 | 0.00 | 0.00 | 0.00 | 60 | 1013.3 |
| 20260902153505 | 86 | 125 | 3.5 | 0.0 | 0.00 | 0.00 | 0.00 | 62 | 1013.0 |
| 20260902153005 | 85 | 148 | 23.5 | 0.0 | 0.00 | 0.00 | 0.00 | 63 | 1013.3 |
| 20260902152505 | 84 | 103 | 11.3 | 0.0 | 0.00 | 0.00 | 0.00 | 64 | 1013.0 |
| 20260902152005 | 84 | 176 | 7.8 | 0.0 | 0.00 | 0.00 | 0.00 | 65 | 1013.0 |
| 20260902151711 | 84 | 92 | 11.3 | 0.0 | 0.00 | 0.00 | 0.00 | 66 | 1013.3 |
| 20260902151005 | 84 | 127 | 3.5 | 0.0 | 0.00 | 0.00 | 0.00 | 67 | 1013.3 |
| 20260902150505 | 83 | 197 | 15.6 | 0.0 | 0.00 | 0.00 | 0.00 | 67 | 1013.0 |
| 20260902150005 | 83 | 42 | 20.0 | 0.0 | 0.00 | 0.00 | 0.00 | 68 | 1013.0 |
| 20260902145505 | 83 | 141 | 15.6 | 0.0 | 0.00 | 0.00 | 0.00 | 69 | 1013.3 |
| 20260902145005 | 83 | 166 | 15.6 | 0.0 | 0.00 | 0.00 | 0.00 | 69 | 1013.3 |
| 20260902144504 | 83 | 156 | 7.8 | 0.0 | 0.00 | 0.00 | 0.00 | 71 | 1013.0 |
| 20260902144005 | 83 | 155 | 27.8 | 0.0 | 0.00 | 0.00 | 0.00 | 71 | 1013.0 |
| 20260902143505 | 82 | 134 | 7.8 | 0.0 | 0.00 | 0.00 | 0.00 | 74 | 1013.3 |
| 20260902143005 | 82 | 57 | 3.5 | 0.0 | 0.00 | 0.00 | 0.00 | 75 | 1013.0 |
| 20260902142713 | 82 | 170 | 11.3 | 0.0 | 0.00 | 0.00 | 0.00 | 75 | 1013.0 |
| 20260902142212 | 82 | 162 | 3.5 | 0.0 | 0.00 | 0.00 | 0.00 | 76 | 1013.3 |
| 20260902141505 | 81 | 165 | 7.8 | 0.0 | 0.00 | 0.00 | 0.00 | 76 | 1013.3 |
| 20260902141212 | 82 | 192 | 15.6 | 0.0 | 0.00 | 0.00 | 0.00 | 76 | 1013.3 |
| 20260902140505 | 81 | 164 | 11.3 | 0.0 | 0.00 | 0.00 | 0.00 | 77 | 1013.0 |
| 20260902140212 | 81 | 168 | 11.3 | 0.0 | 0.00 | 0.00 | 0.00 | 78 | 1013.3 |
| 20260902135713 | 80 | 158 | 11.3 | 0.0 | 0.00 | 0.00 | 0.00 | 80 | 1013.3 |
| 20260902135005 | 80 | 194 | 11.3 | 0.0 | 0.00 | 0.00 | 0.00 | 80 | 1013.0 |
| 20260902134505 | 80 | 167 | 11.3 | 0.0 | 0.00 | 0.00 | 0.00 | 81 | 1013.3 |
| 20260902134005 | 80 | 54 | 11.3 | 0.0 | 0.00 | 0.00 | 0.00 | 81 | 1013.0 |
| 20260902133505 | 80 | 114 | 3.5 | 0.0 | 0.00 | 0.00 | 0.00 | 82 | 1013.0 |
| 20260902133005 | 80 | 139 | 11.3 | 0.0 | 0.00 | 0.00 | 0.00 | 82 | 1012.7 |
| 20260902132504 | 80 | 106 | 7.8 | 0.0 | 0.00 | 0.00 | 0.00 | 82 | 1013.0 |
| 20260902132214 | 79 | 165 | 7.8 | 0.0 | 0.00 | 0.00 | 0.00 | 83 | 1013.0 |
| 20260902131504 | 79 | 131 | 0.0 | 0.0 | 0.00 | 0.00 | 0.00 | 83 | 1013.0 |
| 20260902131005 | 79 | 143 | 3.5 | 0.0 | 0.00 | 0.00 | 0.00 | 84 | 1012.7 |
| 20260902130505 | 79 | 47 | 7.8 | 0.0 | 0.00 | 0.00 | 0.00 | 84 | 1013.0 |
| 20260902130005 | 78 | 52 | 3.5 | 0.0 | 0.00 | 0.00 | 0.00 | 84 | 1013.0 |
| 20260902125505 | 78 | 5 | 0.0 | 0.0 | 0.00 | 0.00 | 0.00 | 85 | 1012.7 |
| 20260902125005 | 78 | 104 | 0.0 | 0.0 | 0.00 | 0.00 | 0.00 | 85 | 1012.7 |
| 20260902124505 | 78 | 113 | 0.0 | 0.0 | 0.00 | 0.00 | 0.00 | 85 | 1012.3 |
| 20260902124005 | 78 | 32 | 0.0 | 0.0 | 0.00 | 0.00 | 0.00 | 85 | 1012.3 |
| 20260902123505 | 78 | 166 | 7.8 | 0.0 | 0.00 | 0.00 | 0.00 | 85 | 1012.3 |
| 20260902123213 | 78 | 89 | 3.5 | 0.0 | 0.00 | 0.00 | 0.00 | 85 | 1012.3 |
| 20260902122712 | 78 | 153 | 3.5 | 0.0 | 0.00 | 0.00 | 0.00 | 85 | 1012.3 |
| 20260902122005 | 78 | 174 | 15.6 | 0.0 | 0.00 | 0.00 | 0.00 | 85 | 1012.3 |
| 20260902121505 | 78 | 109 | 0.0 | 0.0 | 0.00 | 0.00 | 0.00 | 85 | 1012.3 |
| 20260902121005 | 78 | 131 | 3.5 | 0.0 | 0.00 | 0.00 | 0.00 | 85 | 1012.3 |
| 20260902120712 | 78 | 58 | 0.0 | 0.0 | 0.00 | 0.00 | 0.00 | 85 | 1012.3 |
| 20260902120005 | 78 | 93 | 0.0 | 0.0 | 0.00 | 0.00 | 0.00 | 84 | 1012.3 |
| 20260902115505 | 78 | 158 | 11.3 | 0.0 | 0.00 | 0.00 | 0.00 | 85 | 1012.3 |
| 20260902115005 | 78 | 124 | 3.5 | 0.0 | 0.00 | 0.00 | 0.00 | 84 | 1012.3 |
| 20260902114505 | 78 | 49 | 0.0 | 0.0 | 0.00 | 0.00 | 0.00 | 84 | 1012.3 |
| 20260902114213 | 78 | 137 | 0.0 | 0.0 | 0.00 | 0.00 | 0.00 | 84 | 1012.3 |
| 20260902113505 | 78 | 79 | 0.0 | 0.0 | 0.00 | 0.00 | 0.00 | 85 | 1012.3 |
| 20260902113005 | 78 | 151 | 3.5 | 0.0 | 0.00 | 0.00 | 0.00 | 84 | 1012.3 |
| 20260902112505 | 78 | 144 | 11.3 | 0.0 | 0.00 | 0.00 | 0.00 | 84 | 1012.3 |
| 20260902112005 | 78 | 179 | 3.5 | 0.0 | 0.00 | 0.00 | 0.00 | 84 | 1012.3 |
| 20260902111504 | 78 | 145 | 0.0 | 0.0 | 0.00 | 0.00 | 0.00 | 84 | 1012.3 |
| 20260902111213 | 78 | 106 | 0.0 | 0.0 | 0.00 | 0.00 | 0.00 | 84 | 1012.0 |
| 20260902110505 | 78 | 138 | 0.0 | 0.0 | 0.00 | 0.00 | 0.00 | 84 | 1012.3 |
| 20260902110007 | 78 | 108 | 0.0 | 0.0 | 0.00 | 0.00 | 0.00 | 84 | 1012.0 |
| 20260902105505 | 78 | 48 | 7.8 | 0.0 | 0.00 | 0.00 | 0.00 | 84 | 1012.3 |
| 20260902105005 | 78 | 114 | 3.5 | 0.0 | 0.00 | 0.00 | 0.00 | 83 | 1012.3 |
| 20260902104505 | 79 | 107 | 0.0 | 0.0 | 0.00 | 0.00 | 0.00 | 83 | 1012.3 |
| 20260902104005 | 78 | 66 | 3.5 | 0.0 | 0.00 | 0.00 | 0.00 | 83 | 1012.0 |
| 20260902103505 | 78 | 181 | 11.3 | 0.0 | 0.00 | 0.00 | 0.00 | 83 | 1012.3 |
| 20260902103004 | 78 | 152 | 3.5 | 0.0 | 0.00 | 0.00 | 0.00 | 83 | 1012.0 |
| 20260902102505 | 78 | 66 | 0.0 | 0.0 | 0.00 | 0.00 | 0.00 | 83 | 1012.3 |
| 20260902102005 | 79 | 66 | 3.5 | 0.0 | 0.00 | 0.00 | 0.00 | 83 | 1012.0 |
| 20260902101505 | 79 | 74 | 3.5 | 0.0 | 0.00 | 0.00 | 0.00 | 82 | 1012.0 |
| 20260902101005 | 79 | 139 | 3.5 | 0.0 | 0.00 | 0.00 | 0.00 | 82 | 1012.3 |
| 20260902100505 | 79 | 131 | 7.8 | 0.0 | 0.00 | 0.00 | 0.00 | 82 | 1012.3 |
| 20260902100005 | 79 | 138 | 7.8 | 0.0 | 0.00 | 0.00 | 0.00 | 82 | 1012.0 |
| 20260902095505 | 79 | 66 | 15.6 | 0.0 | 0.00 | 0.00 | 0.00 | 82 | 1012.0 |
| 20260902095005 | 79 | 77 | 3.5 | 0.0 | 0.00 | 0.00 | 0.00 | 82 | 1012.3 |
| 20260902094505 | 79 | 127 | 3.5 | 0.0 | 0.00 | 0.00 | 0.00 | 82 | 1012.0 |
| 20260902094004 | 79 | 81 | 11.3 | 0.0 | 0.00 | 0.00 | 0.00 | 82 | 1012.3 |
| 20260902093505 | 79 | 145 | 3.5 | 0.0 | 0.00 | 0.00 | 0.00 | 82 | 1012.3 |
| 20260902093005 | 79 | 100 | 7.8 | 0.0 | 0.00 | 0.00 | 0.00 | 82 | 1012.3 |
| 20260902092505 | 79 | 110 | 0.0 | 0.0 | 0.00 | 0.00 | 0.00 | 81 | 1012.3 |
| 20260902092005 | 79 | 116 | 3.5 | 0.0 | 0.00 | 0.00 | 0.00 | 81 | 1012.3 |
| 20260902091711 | 79 | 82 | 7.8 | 0.0 | 0.00 | 0.00 | 0.00 | 81 | 1012.3 |
| 20260902091005 | 79 | 176 | 15.6 | 0.0 | 0.00 | 0.00 | 0.00 | 81 | 1012.3 |
| 20260902090711 | 79 | 132 | 3.5 | 0.0 | 0.00 | 0.00 | 0.00 | 81 | 1012.3 |
| 20260902090005 | 79 | 101 | 7.8 | 0.0 | 0.00 | 0.00 | 0.00 | 81 | 1012.3 |
| 20260902085505 | 79 | 164 | 7.8 | 0.0 | 0.00 | 0.00 | 0.00 | 81 | 1012.3 |
| 20260902085005 | 79 | 198 | 11.3 | 0.0 | 0.00 | 0.00 | 0.00 | 80 | 1012.3 |
| 20260902084505 | 79 | 112 | 11.3 | 0.0 | 0.00 | 0.00 | 0.00 | 80 | 1012.3 |
| 20260902084005 | 79 | 160 | 11.3 | 0.0 | 0.00 | 0.00 | 0.00 | 80 | 1012.3 |
| 20260902083505 | 79 | 192 | 7.8 | 0.0 | 0.00 | 0.00 | 0.00 | 80 | 1012.3 |
| 20260902083005 | 79 | 144 | 3.5 | 0.0 | 0.00 | 0.00 | 0.00 | 80 | 1012.3 |
| 20260902082505 | 79 | 136 | 3.5 | 0.0 | 0.00 | 0.00 | 0.00 | 80 | 1012.3 |
| 20260902081005 | 80 | 141 | 7.8 | 0.0 | 0.00 | 0.00 | 0.00 | 80 | 1012.3 |
| 20260902080713 | 80 | 127 | 11.3 | 0.0 | 0.00 | 0.00 | 0.00 | 80 | 1012.3 |
| 20260902080004 | 79 | 170 | 7.8 | 0.0 | 0.00 | 0.00 | 0.00 | 80 | 1012.3 |
| 20260902075505 | 80 | 162 | 3.5 | 0.0 | 0.00 | 0.00 | 0.00 | 80 | 1012.7 |
| 20260902075005 | 80 | 175 | 11.3 | 0.0 | 0.00 | 0.00 | 0.00 | 80 | 1013.0 |
| 20260902074505 | 80 | 163 | 7.8 | 0.0 | 0.00 | 0.00 | 0.00 | 80 | 1012.7 |
| 20260902074005 | 80 | 142 | 3.5 | 0.0 | 0.00 | 0.00 | 0.00 | 80 | 1012.7 |
| 20260902073505 | 80 | 144 | 11.3 | 0.0 | 0.00 | 0.00 | 0.00 | 80 | 1012.7 |
| 20260902073005 | 80 | 331 | 7.8 | 0.0 | 0.00 | 0.00 | 0.00 | 80 | 1012.7 |
| 20260902072505 | 80 | 167 | 7.8 | 0.0 | 0.00 | 0.00 | 0.00 | 80 | 1013.0 |
| 20260902072005 | 80 | 48 | 3.5 | 0.0 | 0.00 | 0.00 | 0.00 | 80 | 1013.0 |
| 20260902071712 | 80 | 134 | 3.5 | 0.0 | 0.00 | 0.00 | 0.00 | 80 | 1013.0 |
| 20260902071211 | 80 | 141 | 3.5 | 0.0 | 0.00 | 0.00 | 0.00 | 80 | 1013.0 |
| 20260902070505 | 80 | 8 | 15.6 | 0.0 | 0.00 | 0.00 | 0.00 | 80 | 1013.0 |
| 20260902070006 | 80 | 80 | 3.5 | 0.0 | 0.00 | 0.00 | 0.00 | 79 | 1013.0 |
| 20260902065505 | 80 | 93 | 3.5 | 0.0 | 0.00 | 0.00 | 0.00 | 79 | 1013.0 |
| 20260902065005 | 80 | 69 | 7.8 | 0.0 | 0.00 | 0.00 | 0.00 | 80 | 1013.0 |
| 20260902064505 | 80 | 138 | 7.8 | 0.0 | 0.00 | 0.00 | 0.00 | 79 | 1013.3 |
| 20260902064213 | 80 | 158 | 3.5 | 0.0 | 0.00 | 0.00 | 0.00 | 79 | 1013.3 |
| 20260902063505 | 80 | 149 | 11.3 | 0.0 | 0.00 | 0.00 | 0.00 | 79 | 1013.3 |
| 20260902063005 | 80 | 135 | 3.5 | 0.0 | 0.00 | 0.00 | 0.00 | 79 | 1013.3 |
| 20260902062505 | 80 | 108 | 3.5 | 0.0 | 0.00 | 0.00 | 0.00 | 79 | 1013.0 |
| 20260902062213 | 80 | 269 | 7.8 | 0.0 | 0.00 | 0.00 | 0.00 | 79 | 1013.3 |
| 20260902061004 | 80 | 133 | 3.5 | 0.0 | 0.00 | 0.00 | 0.00 | 79 | 1013.0 |
| 20260902060505 | 80 | 94 | 7.8 | 0.0 | 0.00 | 0.00 | 0.00 | 79 | 1013.0 |
| 20260902060005 | 80 | 111 | 3.5 | 0.0 | 0.00 | 0.00 | 0.00 | 79 | 1013.3 |
| 20260902055505 | 80 | 78 | 3.5 | 0.0 | 0.00 | 0.00 | 0.00 | 79 | 1013.3 |
| 20260902055005 | 80 | 138 | 0.0 | 0.0 | 0.00 | 0.00 | 0.00 | 79 | 1013.3 |
| 20260902054505 | 80 | 1 | 7.8 | 0.0 | 0.00 | 0.00 | 0.00 | 79 | 1013.3 |
| 20260902054005 | 80 | 355 | 7.8 | 0.0 | 0.00 | 0.00 | 0.00 | 79 | 1013.3 |
| 20260902053505 | 80 | 124 | 3.5 | 0.0 | 0.00 | 0.00 | 0.00 | 79 | 1013.3 |
| 20260902053005 | 80 | 147 | 3.5 | 0.0 | 0.00 | 0.00 | 0.00 | 79 | 1013.3 |
| 20260902052505 | 80 | 105 | 11.3 | 0.0 | 0.00 | 0.00 | 0.00 | 79 | 1013.3 |
| 20260902052005 | 80 | 83 | 3.5 | 0.0 | 0.00 | 0.00 | 0.00 | 79 | 1013.3 |
| 20260902051505 | 80 | 42 | 20.0 | 0.0 | 0.00 | 0.00 | 0.00 | 79 | 1013.3 |
| 20260902051005 | 80 | 204 | 7.8 | 0.0 | 0.00 | 0.00 | 0.00 | 79 | 1013.3 |
| 20260902050505 | 80 | 88 | 7.8 | 0.0 | 0.00 | 0.00 | 0.00 | 78 | 1013.3 |
| 20260902045713 | 80 | 135 | 3.5 | 0.0 | 0.00 | 0.00 | 0.00 | 78 | 1013.3 |
| 20260902045004 | 80 | 114 | 7.8 | 0.0 | 0.00 | 0.00 | 0.00 | 78 | 1013.3 |
| 20260902044505 | 80 | 117 | 11.3 | 0.0 | 0.00 | 0.00 | 0.00 | 78 | 1013.3 |
| 20260902044005 | 80 | 82 | 11.3 | 0.0 | 0.00 | 0.00 | 0.00 | 78 | 1013.3 |
| 20260902043505 | 80 | 110 | 7.8 | 0.0 | 0.00 | 0.00 | 0.00 | 78 | 1013.3 |
| 20260902043005 | 80 | 57 | 3.5 | 0.0 | 0.00 | 0.00 | 0.00 | 77 | 1013.3 |
| 20260902042505 | 80 | 162 | 15.6 | 0.0 | 0.00 | 0.00 | 0.00 | 77 | 1013.3 |
| 20260902042005 | 80 | 189 | 23.5 | 0.0 | 0.00 | 0.00 | 0.00 | 77 | 1013.3 |
| 20260902041505 | 80 | 124 | 0.0 | 0.0 | 0.00 | 0.00 | 0.00 | 76 | 1013.3 |
| 20260902041005 | 80 | 156 | 3.5 | 0.0 | 0.00 | 0.00 | 0.00 | 76 | 1013.3 |
| 20260902040504 | 80 | 73 | 7.8 | 0.0 | 0.00 | 0.00 | 0.00 | 76 | 1013.3 |
| 20260902040005 | 80 | 70 | 11.3 | 0.0 | 0.00 | 0.00 | 0.00 | 76 | 1013.0 |